Location: Buena Vista Beach
(41.8098°N, 81.1279°W)
Time: 07:45:40
(UTC+00:00)

NOSS 3-3 (C) - Pass Details

Date: 29 October 2020
Orbit: 825 x 1387 km, 63.4° (Epoch: 22 November)

Event Time Altitude Azimuth Distance (km) Brightness Sun altitude
Rises 23:23:47 0° 205° (SSW) 3,377 7.3 -12.1°
Reaches altitude 10° 23:26:08 10° 203° (SSW) 2,477 6.5 -12.5°
Maximum altitude 23:31:47 69° 121° (ESE) 975 3.8 -13.5°
Drops below altitude 10° 23:38:08 10° 39° (NE) 2,777 6.0 -14.7°
Enters shadow 23:38:38 - 39° (NE) 2,958 6.1 -14.8°
